Regional Weather Roundup
Issued by NWS

Home | Current Version | Previous Version | Text Only | Print | Product List | Glossary On
Versions: 1 2 3 4 5 6 7 8 9 10 11 12 13 14 15 16 17 18 19 20 21 22 23 24 25 26 27 28 29 30 31 32 33 34 35 36 37 38 39 40 41 42 43 44 45 46 47 48 49 50
000
ASUS44 KLIX 060911
RWRLA
LOUISIANA WEATHER ROUNDUP
NATIONAL WEATHER SERVICE NEW ORLEANS LA
400 AM CDT WED MAY 06 2015

NOTE: "FAIR" INDICATES FEW OR NO CLOUDS BELOW 12,000 FEET WITH NO
      SIGNIFICANT WEATHER AND/OR OBSTRUCTIONS TO VISIBILITY.
      SKY/WX - SKY CONDITION AND SIGNIFICANT WEATHER.
      TMP - AIR TEMPERATURE.    DP   - DEWPOINT TEMPERATURE.
      RH  - RELATIVE HUMIDITY.  PRES - PRESSURE.
      HX  - HEAT INDEX.         WCI  - WIND CHILL INDEX.

*  THESE STATIONS ARE NOT NWS OR FAA STATIONS AND ARE NOT UNDER
   NWS QUALITY CONTROL.

LAZ040-048-061>063-065-066-069-061000-
SOUTHEAST LOUISIANA

CITY           SKY/WX    TMP DP  RH WIND       PRES   REMARKS
N.O. AUDUBON   NOT AVBL
N.O. INTL ARPT PTCLDY    69  64  84 E3        30.05F
N.O. LAKEFRONT CLEAR     72  66  81 SE7       30.06S
SLIDELL        PTCLDY    61  60  97 NE3       30.06S
BATON ROUGE    CLEAR     61  60  97 NE5       30.06S
BOOTHVILLE     CLEAR     69  65  86 E6        30.05F
BELLE CHASSE   PTCLDY    69  64  84 CALM      30.05S
BOGALUSA*        N/A     59  56  90 CALM      30.09F
GALLIANO*      PTSUNNY   73  67  83 CALM      30.04F
NEW ROADS*     FAIR      64  61  92 E3        30.06S
GONZALES*      FAIR      62  62 100 CALM      30.04S
HAMMOND*       CLEAR     64  61  88 CALM      30.08S
HOUMA*         CLEAR     63  62  98 CALM      30.04S FOG
PORT FOURCHON* SUNNY     73  68  83 E13G21    30.06F

$$

LAZ041-044-053-054-061000-
SOUTHWEST LOUISIANA

CITY           SKY/WX    TMP DP  RH WIND       PRES   REMARKS
LAKE CHARLES   MOCLDY    67  64  90 E6        30.01F
LAFAYETTE      CLEAR     65  63  93 E3        30.04S
PATTERSON      CLEAR    N/A N/A N/A E5        30.04F
SALT POINT       N/A     66  65  96 CALM      30.02F
NEW IBERIA       N/A    N/A N/A N/A MISG      30.04F
CHENAULT AIRPK MOCLDY    65  64  94 E3        30.03S

$$

LAZ027-028-061000-
CENTRAL LOUISIANA

CITY           SKY/WX    TMP DP  RH WIND       PRES   REMARKS
FORT POLK      MOCLDY    66  62  86 SE8       30.03S
ALEXANDRIA INT CLEAR     63  60  90 CALM      30.03F
ALEXANDRIA     CLEAR     59  56  89 CALM      30.06F

$$

LAZ001-002-061000-
NORTHWEST LOUISIANA

CITY           SKY/WX    TMP DP  RH WIND       PRES   REMARKS
SHREVEPORT     PTCLDY    67  63  87 SE5       30.03S
BARKSDALE AFB  CLEAR     65  62  90 SE6       30.03S
DTN SHREVEPORT NOT AVBL

$$

LAZ014-016-061000-
NORTHEAST LOUISIANA

CITY           SKY/WX    TMP DP  RH WIND       PRES   REMARKS
MONROE         CLEAR     62  59  90 CALM      30.08S
TALLULAH       CLEAR     58  56  93 CALM      30.08S

$$



USA.gov is the U.S. government's official web portal to all federal, state and local government web resources and services.